DateTimeUTC,F1_A11,F1_S11,BsB_S11,BsG_S11,BsR_S11,BbsB_S11,BbsG_S11,BbsR_S11,BaB_A11,BaG_A11,BaR_A11,Tu_S11,T_S11,Uu_S11,U_S11,P_S11,T1_A11
2021-09-28T03:00:00Z,00000200,21000000,,,,,,,0000.18,0000.51,0000.17,16.1,23.2,,00.0,0673.1,30.8
2021-09-28T03:01:00Z,00000200,21000000,,,,,,,0000.19,-000.60,0000.24,16.1,23.2,,00.0,0673.1,30.8
2021-09-28T03:02:00Z,00000200,21000000,,,,,,,-000.15,0000.29,-000.20,16.1,23.2,,00.0,0673.1,30.8
2021-09-28T03:03:00Z,00000200,61000000,,,,,,,0000.22,0000.30,0000.14,16.1,23.2,,00.0,0673.1,30.8
2021-09-28T03:04:00Z,00000200,41000000,0000.52,0000.75,0000.31,-000.27,0000.24,0000.01,0000.11,0000.13,0000.40,16.4,23.1,,00.0,0674.0,30.8
2021-09-28T03:05:00Z,00000200,01000000,0000.28,0000.71,0000.49,0000.19,0000.40,0000.04,0000.22,0000.03,-000.36,16.4,23.0,,00.0,0674.1,30.8
2021-09-28T03:06:00Z,00000200,01000000,0000.87,0000.46,0000.36,-000.05,-000.21,-000.03,-000.17,-000.12,0000.07,16.3,23.0,,00.0,0674.0,30.8
2021-09-28T03:07:00Z,00000200,01000000,-000.16,0000.09,0000.17,0000.12,0000.10,0000.16,0000.05,0000.00,-000.09,16.2,22.9,,00.0,0674.1,30.8
2021-09-28T03:08:00Z,00000200,01000000,0000.90,0000.65,0000.30,0000.59,0000.11,-000.07,0000.05,0000.19,0000.03,16.1,22.9,,00.0,0674.0,30.8
2021-09-28T03:09:00Z,00000200,01000000,0000.97,0000.18,0000.45,-000.39,0000.04,0000.09,0000.35,-000.32,0000.04,16.0,22.8,,00.0,0674.0,30.8
2021-09-28T03:10:00Z,00000200,01000000,0001.42,0000.42,0000.42,-000.28,0000.08,-000.22,0000.14,0000.37,0000.10,16.0,22.8,,00.0,0674.0,30.8
2021-09-28T03:11:00Z,00000200,01000000,0001.19,0000.21,0000.28,-000.33,-000.33,-000.04,0000.32,0000.44,0000.37,15.9,22.7,,00.0,0674.0,30.8
2021-09-28T03:12:00Z,00000200,01000000,0001.09,0000.58,0000.56,-000.24,0000.06,0000.01,0000.27,0000.22,0000.24,15.9,22.7,,00.0,0674.0,30.8
2021-09-28T03:13:00Z,00000200,01000000,0001.92,0000.50,0000.94,0000.01,0000.12,-000.06,0000.28,0000.22,-000.03,16.0,22.8,,00.0,0674.0,30.8
2021-09-28T03:14:00Z,00000200,01000000,0001.12,0000.06,0000.35,-000.22,0000.37,-000.05,0000.03,0000.24,0000.52,16.0,22.7,,00.0,0674.0,30.8
2021-09-28T03:15:00Z,00000200,01000000,0000.74,0000.88,0000.64,0000.49,-000.11,0000.07,0000.03,0000.12,-000.14,16.1,22.8,,00.0,0674.0,30.8
2021-09-28T03:16:00Z,00000200,01000000,0000.30,0000.36,0000.38,0000.37,-000.01,0000.04,0000.12,-000.01,0000.18,16.1,22.8,,00.0,0674.0,30.8
2021-09-28T03:17:00Z,00000200,01000000,0000.70,0000.12,0000.49,-000.33,0000.35,-000.08,0000.48,0000.20,0000.08,16.2,22.8,,00.0,0674.0,30.8
2021-09-28T03:18:00Z,00000200,01000000,0000.03,0000.35,-000.01,-000.06,0000.13,-000.25,0000.17,0000.22,0000.21,16.2,22.8,,00.0,0674.1,30.8
2021-09-28T03:19:00Z,00000200,01000000,0001.41,-000.03,0000.68,-000.18,0000.11,0000.09,0000.03,0000.44,-000.10,16.2,22.8,,00.0,0674.1,30.8
2021-09-28T03:20:00Z,00000200,01000000,0000.15,0000.42,0000.37,-000.30,-000.12,0000.12,0000.18,-000.31,0000.10,16.3,22.8,,00.0,0674.1,30.8
2021-09-28T03:21:00Z,00000200,01000000,0000.69,0000.19,0000.36,-000.11,0000.16,0000.07,-000.23,0000.25,0000.29,16.3,22.8,,00.0,0674.1,30.8
2021-09-28T03:22:00Z,00000200,01000000,0000.91,0000.25,0000.59,-000.35,0000.19,0000.09,0000.34,0000.18,0000.05,16.4,22.9,,00.0,0674.1,30.8
2021-09-28T03:23:00Z,00000200,01000000,0000.24,0000.32,0000.32,-000.52,0000.21,0000.05,0000.24,0000.16,0000.05,16.4,22.9,,00.0,0674.2,30.8
2021-09-28T03:24:00Z,00000200,01000000,0001.83,0000.04,0000.35,0000.13,0000.11,-000.26,-000.10,-000.13,-000.01,16.3,22.9,,00.0,0674.1,30.8
2021-09-28T03:25:00Z,00000200,01000000,0000.78,0000.20,0000.33,-000.21,0000.07,-000.03,0000.03,0000.36,0000.26,16.2,22.8,,00.0,0674.2,30.8
2021-09-28T03:26:00Z,00000200,01000000,0000.52,0000.35,0000.56,0000.30,-000.17,-000.06,0000.12,-000.18,-000.13,16.2,22.8,,00.0,0674.2,30.8
2021-09-28T03:27:00Z,00000200,01000000,0000.35,0000.06,0000.23,0000.20,0000.12,-000.16,0000.48,0000.26,0000.14,16.2,22.8,,00.0,0674.2,30.8
2021-09-28T03:28:00Z,00000200,01000000,0000.54,0000.53,0000.57,0000.19,0000.47,-000.04,0000.04,0000.37,0000.17,16.2,22.8,,00.0,0674.2,30.8
2021-09-28T03:29:00Z,00000200,01000000,0001.62,0000.25,0000.47,0000.82,0000.11,-000.18,0000.15,-000.38,0000.00,16.3,22.8,,00.0,0674.2,30.8
2021-09-28T03:30:00Z,00000200,01000000,0000.87,0000.26,0000.20,-000.44,-000.14,-000.10,-000.01,0000.75,0000.37,16.4,22.8,,00.0,0674.2,30.8
2021-09-28T03:31:00Z,00000200,01000000,0001.17,0000.12,0000.68,0000.04,-000.04,0000.13,0000.29,-000.02,0000.17,16.4,22.8,,00.0,0674.3,30.8
2021-09-28T03:32:00Z,00000200,01000000,0000.70,0000.43,0000.28,0000.65,0000.46,-000.23,0000.27,0000.17,0000.11,16.4,22.9,,00.0,0674.3,30.8
2021-09-28T03:33:00Z,00000200,01000000,0000.32,0000.53,0000.57,-000.00,0000.01,-000.06,0000.37,-000.10,0000.06,16.5,22.9,,00.0,0674.3,30.8
2021-09-28T03:34:00Z,00000200,01000000,0000.15,-000.01,0000.18,-000.78,-000.14,-000.29,0000.26,0000.72,0000.08,16.5,22.9,,00.0,0674.3,30.8
2021-09-28T03:35:00Z,00000200,01000000,0000.20,0000.38,0000.51,-000.02,0000.05,-000.00,0000.00,-000.15,0000.26,16.5,22.9,,00.0,0674.3,30.8
2021-09-28T03:36:00Z,00000200,01000000,0000.89,0000.45,0000.27,-000.19,0000.17,-000.06,0000.13,0000.13,-000.21,16.6,23.0,,00.0,0674.3,30.8
2021-09-28T03:37:00Z,00000200,01000000,0000.07,0000.63,0000.57,-000.04,0000.11,-000.09,-000.01,0000.19,0000.18,16.6,23.0,,00.0,0674.3,30.8
2021-09-28T03:38:00Z,00000200,01000000,0000.47,0000.43,0000.09,0000.53,-000.01,-000.10,0000.05,-000.09,0000.04,16.5,23.0,,00.0,0674.3,30.8
2021-09-28T03:39:00Z,00000200,01000000,0001.16,0000.55,0000.70,0000.17,0000.32,0000.03,-000.08,-000.29,-000.00,16.4,22.9,,00.0,0674.2,30.8
2021-09-28T03:40:00Z,00000200,01000000,0001.11,0000.64,0000.58,0000.20,0000.08,0000.01,0000.64,0000.35,-000.03,16.3,22.9,,00.0,0674.2,30.8
2021-09-28T03:41:00Z,00000200,01000000,0000.69,0000.25,0000.45,-000.11,-000.11,0000.19,-000.16,0000.50,0000.36,16.3,22.8,,00.0,0674.2,30.8
2021-09-28T03:42:00Z,00000200,01000000,0000.51,0000.70,0000.68,-000.09,-000.38,-000.06,0000.42,0000.01,0000.35,16.3,22.8,,00.0,0674.3,30.8
2021-09-28T03:43:00Z,00000200,01000000,0001.04,0000.38,0000.39,-000.34,0000.38,0000.26,0000.15,-000.08,-000.13,16.3,22.8,,00.0,0674.3,30.8
2021-09-28T03:44:00Z,00000200,01000000,0001.38,0000.65,0000.57,-000.35,0000.04,0000.01,0000.37,0000.61,0000.38,16.4,22.9,,00.0,0674.3,30.8
2021-09-28T03:45:00Z,00000200,01000000,0000.50,0000.42,0000.46,-000.35,-000.11,-000.07,0000.17,0000.13,0000.12,16.4,22.9,,00.0,0674.3,30.8
2021-09-28T03:46:00Z,00000200,01000000,0001.02,0000.48,0000.45,-000.27,0000.11,0000.06,0000.27,0000.29,-000.01,16.4,22.9,,00.0,0674.3,30.8
2021-09-28T03:47:00Z,00000200,01000000,0000.47,0000.00,0000.41,-000.09,-000.12,0000.10,0000.15,0000.08,0000.28,16.5,22.9,,00.0,0674.2,30.8
2021-09-28T03:48:00Z,00000200,01000000,0000.41,0000.01,0000.33,-000.14,0000.18,-000.26,0000.45,0000.55,0000.18,16.5,22.9,,00.0,0674.2,30.8
2021-09-28T03:49:00Z,00000200,01000000,0000.87,0000.28,0000.26,-000.15,-000.14,-000.19,0000.02,0000.08,0000.29,16.6,23.0,,00.0,0674.2,30.8
2021-09-28T03:50:00Z,00000200,01000000,0000.52,0000.11,0000.09,0000.23,0000.25,0000.43,0000.26,0000.02,0000.02,16.6,23.0,,00.0,0674.2,30.8
2021-09-28T03:51:00Z,00000200,01000000,0001.25,0000.14,0000.27,0000.24,0000.25,-000.10,-000.06,0000.35,-000.17,16.7,23.0,,00.0,0674.2,30.9
2021-09-28T03:52:00Z,00000200,01000000,0000.95,0000.33,0000.47,0000.59,-000.16,0000.01,-000.01,-000.20,0000.30,16.7,23.0,,00.0,0674.2,30.9
2021-09-28T03:53:00Z,00000200,01000000,0001.78,0000.29,0000.49,-000.51,0000.27,-000.26,0000.16,0000.07,-000.15,16.7,23.0,,00.0,0674.2,30.9
2021-09-28T03:54:00Z,00000200,01000000,0000.64,0000.46,0000.68,0000.20,0000.44,0000.14,-000.01,0000.10,0000.15,16.6,23.0,,00.0,0674.2,30.8
2021-09-28T03:55:00Z,00000200,01000000,0000.57,0000.12,0000.38,-000.32,0000.05,0000.03,0000.18,-000.01,0000.17,16.5,23.0,,00.0,0674.2,30.8
2021-09-28T03:56:00Z,00000200,01000000,0000.53,0000.27,0000.30,0000.41,-000.08,0000.14,0000.21,0000.23,-000.16,16.5,22.9,,00.0,0674.2,30.8
2021-09-28T03:57:00Z,00000200,41000000,,,,,,,0000.06,-000.02,0000.47,16.5,23.0,,00.0,0674.0,30.8
2021-09-28T03:58:00Z,00000200,61000000,,,,,,,0000.05,-000.32,-000.42,16.1,23.1,,00.0,0673.2,30.8
2021-09-28T03:59:00Z,00000200,21000000,,,,,,,-000.02,0000.34,-000.02,16.1,23.2,,00.0,0673.2,30.8
